Renton, WA

9:48 AM PDT on June 26, 2017 (GMT -0700)
Renton Municipal

Weather History for KRNT - December, 2011

Change the Weather History Date:

Saturday, December 17, 2011

  Actual Average Record
Temperature  
Mean Temperature 42 °F -  
Max Temperature 52 °F 44 °F 55 °F (1999)
Min Temperature 32 °F 35 °F 23 °F (2016)
Degree Days  
Heating Degree Days 23    
Moisture  
Dew Point 35 °F    
Average Humidity 89    
Maximum Humidity 100    
Minimum Humidity 59    
Precipitation  
Precipitation 0.00 in - - ()
Sea Level Pressure  
Sea Level Pressure 30.24 in    
Wind  
Wind Speed 2 mph (SE)    
Max Wind Speed 7 mph    
Max Gust Speed -    
Visibility 7 miles    
Events Fog    
Averages and records for this station are not official NWS values.
T = Trace of Precipitation, MM = Missing Value Source: NWS Daily Summary

Daily Weather History Graph

Daily Weather History Graph

Search for Another Location

Airport or City:

Trip Planner

Search our weather history database for the weather conditions in past years. The results will help you decide how hot, cold, wet, or windy it might be!

Date:

Astronomy

Dec. 17, 2011 Rise Set
Actual Time 7:51 AM PST 4:18 PM PST
Civil Twilight 7:15 AM PST 4:54 PM PST
Nautical Twilight 6:36 AM PST 5:33 PM PST
Astronomical Twilight 5:58 AM PST 6:11 PM PST
Moon No Moon Rise 11:40 AM PST (12/17)
Length of Visible Light 9h 39m
Length of Day
8h 27m
Waning Gibbous, 52% of the Moon is Illuminated
Dec 17
Waning Gibbous
Dec 17
Last Quarter
Dec 24
New
Dec 31
First Quarter
Jan 8
Full

Hourly Weather History & Observations

Time (PST) Temp. Windchill Dew Point Humidity Pressure Visibility Wind Dir Wind Speed Gust Speed Precip Events Conditions
12:53 AM 36.0 °F - 34.0 °F 93% 30.41 in 10.0 mi Calm Calm - N/A   Clear
1:53 AM 34.0 °F - 33.1 °F 96% 30.40 in 10.0 mi Calm Calm - N/A   Clear
2:53 AM 34.0 °F - 32.0 °F 92% 30.38 in 9.0 mi Calm Calm - N/A   Clear
3:10 AM 33.8 °F - 32.0 °F 93% 30.36 in 10.0 mi Calm Calm - N/A   Scattered Clouds
3:19 AM 33.8 °F - 32.0 °F 93% 30.36 in 10.0 mi Calm Calm - N/A   Mostly Cloudy
3:33 AM 33.8 °F - 32.0 °F 93% 30.35 in 1.5 mi Calm Calm - N/A   Overcast
3:41 AM 33.8 °F - 33.8 °F 100% 30.34 in 0.2 mi Calm Calm - N/A Fog Fog
3:53 AM 33.1 °F 30.0 °F 32.0 °F 96% 30.36 in 2.5 mi SE 3.5 mph - N/A   Mostly Cloudy
4:01 AM 33.8 °F - 32.0 °F 93% 30.34 in 4.0 mi Calm Calm - N/A   Overcast
4:08 AM 33.8 °F - 33.8 °F 100% 30.34 in 1.5 mi Calm Calm - N/A   Overcast
4:16 AM 33.8 °F - 33.8 °F 100% 30.33 in 0.2 mi Calm Calm - N/A Fog Fog
4:53 AM 33.1 °F 28.7 °F 33.1 °F 100% 30.34 in 0.5 mi ESE 4.6 mph - N/A Fog Fog
5:53 AM 32.0 °F 28.7 °F 32.0 °F 100% 30.32 in 0.5 mi ESE 3.5 mph - N/A Fog Fog
6:10 AM 32.0 °F 28.7 °F 32.0 °F 100% 30.30 in 2.0 mi ESE 3.5 mph - N/A   Mostly Cloudy
6:15 AM 32.0 °F - 32.0 °F 100% 30.30 in 4.0 mi Calm Calm - N/A   Scattered Clouds
6:53 AM 32.0 °F - 32.0 °F 100% 30.31 in 4.0 mi Calm Calm - N/A   Clear
7:53 AM 32.0 °F - 30.9 °F 96% 30.29 in 8.0 mi Calm Calm - N/A   Overcast
8:53 AM 33.1 °F 30.0 °F 32.0 °F 96% 30.28 in 7.0 mi SE 3.5 mph - N/A   Scattered Clouds
9:53 AM 35.1 °F 31.0 °F 34.0 °F 96% 30.27 in 8.0 mi SE 4.6 mph - N/A   Overcast
10:53 AM 37.9 °F 35.5 °F 35.1 °F 89% 30.25 in 10.0 mi SE 3.5 mph - N/A   Overcast
11:53 AM 43.0 °F - 37.9 °F 82% 30.21 in 10.0 mi Calm Calm - N/A   Overcast
12:53 PM 46.9 °F - 39.0 °F 74% 30.16 in 10.0 mi Calm Calm - N/A   Partly Cloudy
1:53 PM 50.0 °F - 39.9 °F 68% 30.13 in 10.0 mi South 4.6 mph - N/A   Clear
2:53 PM 52.0 °F - 37.9 °F 59% 30.10 in 10.0 mi SSE 3.5 mph - N/A   Clear
3:53 PM 50.0 °F - 39.2 °F 66% 30.06 in 10.0 mi SSE 5.8 mph - N/A   Clear
4:53 PM 46.9 °F - 39.0 °F 74% 30.08 in 10.0 mi SSE 4.6 mph - N/A   Clear
5:53 PM 44.1 °F 41.5 °F 39.0 °F 82% 30.07 in 10.0 mi ESE 4.6 mph - N/A   Clear
6:53 PM 44.1 °F 40.8 °F 39.0 °F 82% 30.06 in 10.0 mi SE 5.8 mph - N/A   Clear
7:53 PM 42.1 °F 37.7 °F 37.9 °F 85% 30.07 in 10.0 mi SSE 6.9 mph - N/A   Clear
8:53 PM 42.1 °F 39.2 °F 37.9 °F 85% 30.06 in 10.0 mi SE 4.6 mph - N/A   Clear
9:53 PM 41.0 °F 37.1 °F 37.9 °F 89% 30.07 in 9.0 mi SE 5.8 mph - N/A   Clear
10:53 PM 45.0 °F 41.2 °F 37.9 °F 76% 30.06 in 10.0 mi ESE 6.9 mph - N/A   Mostly Cloudy
11:53 PM 46.0 °F - 39.0 °F 76% 30.10 in 10.0 mi Calm Calm - N/A   Overcast